EW3320 Weather Reports


time (UTC)temp
C
wind
direction
speed
KPH
gust
KPH
rain 1hr
cm
rain 24hr
cm
rain mn
cm
humidity
%
barometer
mb
20260906235010 35 126 0.0 17.7 0.00 0.00 0.00 17 1000.7
20260906234528 35 127 1.6 11.3 0.00 0.00 0.00 17 1000.6
20260906234036 35 128 3.2 9.7 0.00 0.00 0.00 17 1000.7
20260906233554 34 133 3.2 8.0 0.00 0.00 0.00 17 1000.7
20260906233005 35 153 0.0 8.0 0.00 0.00 0.00 17 1000.7
20260906232519 35 120 1.6 8.0 0.00 0.00 0.00 17 1000.8
20260906232028 35 124 1.6 14.5 0.00 0.00 0.00 17 1000.8
20260906231552 35 111 3.2 14.5 0.00 0.00 0.00 16 1000.8
20260906231055 35 118 1.6 6.4 0.00 0.00 0.00 16 1000.8
20260906231001 35 98 1.6 6.4 0.00 0.00 0.00 17 1000.8
20260906230511 36 139 0.0 4.8 0.00 0.00 0.00 16 1000.8
20260906230030 36 146 0.0 4.8 0.00 0.00 0.00 17 1000.9
20260906225536 35 146 0.0 6.4 0.00 0.00 0.00 17 1000.8
20260906225054 35 119 0.0 6.4 0.00 0.00 0.00 16 1000.9
20260906224503 35 136 0.0 9.7 0.00 0.00 0.00 16 1000.9
20260906224017 35 110 3.2 9.7 0.00 0.00 0.00 17 1000.9
20260906223527 36 146 1.6 4.8 0.00 0.00 0.00 16 1000.8
20260906223041 35 130 0.0 6.4 0.00 0.00 0.00 16 1000.9
20260906222553 35 108 1.6 11.3 0.00 0.00 0.00 16 1001.1
20260906222007 35 145 1.6 12.9 0.00 0.00 0.00 17 1001.2
20260906221526 36 105 1.6 8.0 0.00 0.00 0.00 16 1001.1
20260906221031 36 114 1.6 8.0 0.00 0.00 0.00 16 1001.3
20260906220541 36 122 0.0 11.3 0.00 0.00 0.00 16 1001.4
20260906220127 36 136 0.0 11.3 0.00 0.00 0.00 15 1001.5
20260906215506 36 134 1.6 4.8 0.00 0.00 0.00 15 1001.5
20260906215021 35 138 0.0 8.0 0.00 0.00 0.00 16 1001.7
20260906214536 35 129 3.2 8.0 0.00 0.00 0.00 15 1001.8
20260906214045 35 122 3.2 9.7 0.00 0.00 0.00 15 1001.8
20260906213555 35 152 3.2 14.5 0.00 0.00 0.00 15 1002.1
20260906213013 36 138 4.8 14.5 0.00 0.00 0.00 15 1002.2
20260906212522 36 97 6.4 11.3 0.00 0.00 0.00 15 1002.3
20260906212036 36 137 0.0 4.8 0.00 0.00 0.00 15 1002.4
20260906211546 36 122 1.6 8.0 0.00 0.00 0.00 15 1002.5
20260906211003 36 139 1.6 8.0 0.00 0.00 0.00 15 1002.6
20260906210526 36 118 0.0 6.4 0.00 0.00 0.00 15 1002.6
20260906210050 36 151 0.0 4.8 0.00 0.00 0.00 16 1002.8
20260906205543 35 161 0.0 4.8 0.00 0.00 0.00 14 1002.9
20260906205052 35 155 0.0 4.8 0.00 0.00 0.00 15 1003.0
20260906204509 35 126 0.0 6.4 0.00 0.00 0.00 15 1003.1
20260906204018 35 136 0.0 6.4 0.00 0.00 0.00 15 1003.2
20260906203533 34 144 0.0 4.8 0.00 0.00 0.00 16 1003.3
20260906203043 33 133 0.0 8.0 0.00 0.00 0.00 16 1003.4
20260906202558 33 115 1.6 11.3 0.00 0.00 0.00 16 1003.5
20260906202501 33 132 0.0 11.3 0.00 0.00 0.00 16 1003.6
20260906202014 33 124 4.8 12.9 0.00 0.00 0.00 16 1003.6
20260906201525 34 139 4.8 12.9 0.00 0.00 0.00 15 1003.6
20260906201034 34 140 1.6 8.0 0.00 0.00 0.00 15 1003.7
20260906200552 34 132 1.6 6.4 0.00 0.00 0.00 16 1003.6
20260906200010 33 141 0.0 4.8 0.00 0.00 0.00 16 1003.7
20260906195516 33 156 1.6 6.4 0.00 0.00 0.00 16 1003.9
20260906195028 33 160 3.2 8.0 0.00 0.00 0.00 16 1003.9
20260906194606 33 120 1.6 8.0 0.00 0.00 0.00 15 1003.9
20260906194053 34 125 0.0 8.0 0.00 0.00 0.00 15 1004.0
20260906193511 34 120 1.6 9.7 0.00 0.00 0.00 15 1004.0
20260906193021 34 139 0.0 4.8 0.00 0.00 0.00 15 1004.1
20260906192534 33 141 1.6 4.8 0.00 0.00 0.00 16 1004.2
20260906192044 34 175 1.6 8.0 0.00 0.00 0.00 15 1004.2
20260906191604 33 142 0.0 9.7 0.00 0.00 0.00 15 1004.4
20260906191015 33 159 1.6 9.7 0.00 0.00 0.00 15 1004.4
20260906190525 34 157 0.0 4.8 0.00 0.00 0.00 16 1004.5
20260906190040 33 148 0.0 8.0 0.00 0.00 0.00 16 1004.6
20260906185548 33 148 3.2 8.0 0.00 0.00 0.00 16 1004.8
20260906185005 33 133 1.6 6.4 0.00 0.00 0.00 16 1004.9
20260906184515 33 152 3.2 6.4 0.00 0.00 0.00 16 1005.0
20260906184028 32 176 0.0 8.0 0.00 0.00 0.00 17 1005.1
20260906183531 32 176 3.2 6.4 0.00 0.00 0.00 16 1005.1
20260906183056 33 232 1.6 4.8 0.00 0.00 0.00 16 1005.2
20260906182554 32 150 0.0 8.0 0.00 0.00 0.00 17 1005.3
20260906182010 32 144 3.2 8.0 0.00 0.00 0.00 17 1005.4
20260906181526 33 185 0.0 8.0 0.00 0.00 0.00 17 1005.5
20260906181034 33 162 1.6 8.0 0.00 0.00 0.00 18 1005.6
20260906180548 33 131 1.6 6.4 0.00 0.00 0.00 17 1005.8
20260906180058 32 147 0.0 8.0 0.00 0.00 0.00 18 1005.8
20260906175514 31 155 1.6 8.0 0.00 0.00 0.00 20 1005.9
20260906175029 31 272 0.0 8.0 0.00 0.00 0.00 23 1005.9
20260906174539 30 145 1.6 11.3 0.00 0.00 0.00 23 1006.0
20260906174050 30 173 3.2 11.3 0.00 0.00 0.00 24 1006.0
20260906173603 30 141 4.8 9.7 0.00 0.00 0.00 24 1006.1
20260906173503 30 211 4.8 9.7 0.00 0.00 0.00 24 1006.1
20260906173020 30 162 3.2 9.7 0.00 0.00 0.00 24 1006.2
20260906172527 30 154 3.2 9.7 0.00 0.00 0.00 25 1006.2
20260906172042 30 147 3.2 9.7 0.00 0.00 0.00 25 1006.3
20260906171603 30 159 1.6 8.0 0.00 0.00 0.00 25 1006.3
20260906171006 29 168 0.0 8.0 0.00 0.00 0.00 26 1006.4
20260906170526 29 167 1.6 9.7 0.00 0.00 0.00 26 1006.5
20260906170030 28 170 3.2 9.7 0.00 0.00 0.00 26 1006.5
20260906165545 28 189 1.6 8.0 0.00 0.00 0.00 27 1006.5
20260906165056 28 155 1.6 8.0 0.00 0.00 0.00 27 1006.6
20260906164528 28 144 1.6 6.4 0.00 0.00 0.00 27 1006.6
20260906164023 28 165 3.2 8.0 0.00 0.00 0.00 27 1006.5
20260906163539 28 152 1.6 9.7 0.00 0.00 0.00 27 1006.6
20260906163053 28 161 3.2 9.7 0.00 0.00 0.00 27 1006.6
20260906162509 28 161 1.6 12.9 0.00 0.00 0.00 26 1006.7
20260906162018 28 157 1.6 12.9 0.00 0.00 0.00 26 1006.7
20260906161530 28 226 1.6 8.0 0.00 0.00 0.00 27 1006.7
20260906161040 28 148 1.6 6.4 0.00 0.00 0.00 27 1006.8
20260906160556 27 152 1.6 11.3 0.00 0.00 0.00 28 1006.7
20260906160008 27 169 1.6 11.3 0.00 0.00 0.00 29 1006.7
20260906155525 27 164 4.8 9.7 0.00 0.00 0.00 28 1006.8
20260906155032 27 165 0.0 9.7 0.00 0.00 0.00 27 1006.8
20260906154546 27 148 0.0 6.4 0.00 0.00 0.00 28 1006.7
20260906154057 27 124 1.6 6.4 0.00 0.00 0.00 28 1006.7
20260906153512 26 146 0.0 9.7 0.00 0.00 0.00 28 1006.7
20260906153022 26 177 1.6 9.7 0.00 0.00 0.00 29 1006.8
20260906152536 26 124 1.6 9.7 0.00 0.00 0.00 29 1006.7
20260906152044 26 135 3.2 9.7 0.00 0.00 0.00 30 1006.8
20260906151558 25 158 1.6 6.4 0.00 0.00 0.00 30 1006.9
20260906151014 25 140 1.6 6.4 0.00 0.00 0.00 30 1006.9
20260906150528 25 142 1.6 8.0 0.00 0.00 0.00 31 1007.0
20260906150052 25 160 1.6 8.0 0.00 0.00 0.00 31 1007.0
20260906145548 24 138 1.6 4.8 0.00 0.00 0.00 32 1007.0
20260906145100 23 145 0.0 3.2 0.00 0.00 0.00 33 1007.0
20260906145002 23 146 0.0 3.2 0.00 0.00 0.00 33 1007.0
20260906144512 23 146 0.0 3.2 0.00 0.00 0.00 34 1007.1
20260906144026 23 146 0.0 0.0 0.00 0.00 0.00 34 1007.1
20260906143536 22 146 0.0 0.0 0.00 0.00 0.00 33 1007.0
20260906143051 22 146 0.0 0.0 0.00 0.00 0.00 33 1006.9
20260906142600 22 146 0.0 3.2 0.00 0.00 0.00 33 1006.9
20260906142502 22 173 0.0 3.2 0.00 0.00 0.00 33 1006.9
20260906142018 22 173 0.0 3.2 0.00 0.00 0.00 33 1007.0
20260906141536 22 146 0.0 6.4 0.00 0.00 0.00 33 1006.9
20260906141044 22 302 1.6 3.2 0.00 0.00 0.00 33 1006.9
20260906140554 22 162 0.0 3.2 0.00 0.00 0.00 33 1006.7
20260906140009 22 155 0.0 4.8 0.00 0.00 0.00 33 1006.6
20260906135519 22 150 0.0 4.8 0.00 0.00 0.00 33 1006.6
20260906135031 21 142 0.0 4.8 0.00 0.00 0.00 33 1006.5
20260906134542 21 136 0.0 6.4 0.00 0.00 0.00 33 1006.5
20260906134058 21 141 1.6 6.4 0.00 0.00 0.00 33 1006.5
20260906133513 21 133 0.0 4.8 0.00 0.00 0.00 34 1006.4
20260906133024 20 151 1.6 6.4 0.00 0.00 0.00 35 1006.3
20260906132534 20 137 1.6 6.4 0.00 0.00 0.00 35 1006.3
20260906132050 19 135 1.6 4.8 0.00 0.00 0.00 35 1006.3
20260906131600 19 144 0.0 4.8 0.00 0.00 0.00 36 1006.4
20260906131521 19 150 0.0 4.8 0.00 0.00 0.00 36 1006.4
20260906131017 18 150 0.0 3.2 0.00 0.00 0.00 39 1006.5
20260906130531 18 150 0.0 0.0 0.00 0.00 0.00 40 1006.5
20260906130046 18 150 0.0 0.0 0.00 0.00 0.00 40 1006.4
20260906125554 18 151 0.0 0.0 0.00 0.00 0.00 40 1006.4
20260906125005 18 150 0.0 0.0 0.00 0.00 0.00 41 1006.3
20260906124519 18 150 0.0 0.0 0.00 0.00 0.00 41 1006.3
20260906124030 18 150 0.0 0.0 0.00 0.00 0.00 39 1006.4
20260906123543 19 150 0.0 0.0 0.00 0.00 0.00 39 1006.4
20260906123054 19 150 0.0 0.0 0.00 0.00 0.00 38 1006.3
20260906122511 19 151 0.0 1.6 0.00 0.00 0.00 37 1006.3
20260906122022 19 150 0.0 1.6 0.00 0.00 0.00 38 1006.3
20260906121535 19 150 0.0 1.6 0.00 0.00 0.00 38 1006.2
20260906121046 20 151 0.0 1.6 0.00 0.00 0.00 39 1006.2
20260906120505 20 150 0.0 1.6 0.00 0.00 0.00 40 1006.2
20260906120013 20 151 0.0 1.6 0.00 0.00 0.00 40 1006.2
20260906115531 20 151 0.0 0.0 0.00 0.00 0.00 41 1006.2
20260906115039 20 150 0.0 0.0 0.00 0.00 0.00 40 1006.2
20260906114554 20 150 0.0 0.0 0.00 0.00 0.00 40 1006.2
20260906114013 20 150 0.0 0.0 0.00 0.00 0.00 41 1006.2
20260906113522 20 151 0.0 0.0 0.00 0.00 0.00 40 1006.2
20260906113032 20 150 0.0 0.0 0.00 0.00 0.00 39 1006.1
20260906112545 20 150 0.0 0.0 0.00 0.00 0.00 39 1006.1
20260906112056 21 150 0.0 1.6 0.00 0.00 0.00 38 1006.1
20260906112003 21 150 0.0 1.6 0.00 0.00 0.00 38 1006.0
20260906111512 21 150 0.0 1.6 0.00 0.00 0.00 38 1006.2
20260906111026 21 150 0.0 0.0 0.00 0.00 0.00 37 1006.2
20260906110536 21 174 0.0 0.0 0.00 0.00 0.00 37 1006.2
20260906110050 21 174 0.0 0.0 0.00 0.00 0.00 36 1006.2
20260906105603 22 174 0.0 1.6 0.00 0.00 0.00 35 1006.1
20260906105503 22 174 0.0 3.2 0.00 0.00 0.00 35 1006.1
20260906105018 22 174 0.0 3.2 0.00 0.00 0.00 35 1006.1
20260906104528 21 155 0.0 3.2 0.00 0.00 0.00 35 1006.1
20260906104042 21 135 0.0 1.6 0.00 0.00 0.00 36 1006.1
20260906103552 21 130 0.0 0.0 0.00 0.00 0.00 35 1006.0
20260906103009 22 130 0.0 0.0 0.00 0.00 0.00 35 1006.0
20260906102519 22 130 0.0 1.6 0.00 0.00 0.00 34 1006.0
20260906102032 22 130 0.0 1.6 0.00 0.00 0.00 33 1005.9
20260906101542 22 130 0.0 1.6 0.00 0.00 0.00 33 1006.0
20260906101055 22 130 0.0 1.6 0.00 0.00 0.00 33 1005.9
20260906100508 22 130 0.0 4.8 0.00 0.00 0.00 32 1006.0
20260906100022 22 129 0.0 4.8 0.00 0.00 0.00 32 1005.9
20260906095534 22 129 0.0 6.4 0.00 0.00 0.00 32 1005.9
20260906095045 23 134 0.0 6.4 0.00 0.00 0.00 32 1005.9
20260906094637 23 134 1.6 6.4 0.00 0.00 0.00 32 1005.8
20260906094016 23 136 1.6 9.7 0.00 0.00 0.00 32 1005.8
20260906093522 23 134 3.2 9.7 0.00 0.00 0.00 32 1005.7
20260906093038 23 121 3.2 9.7 0.00 0.00 0.00 32 1005.6
20260906092550 23 138 3.2 9.7 0.00 0.00 0.00 32 1005.6
20260906092100 23 135 3.2 8.0 0.00 0.00 0.00 32 1005.6
20260906092003 23 130 3.2 8.0 0.00 0.00 0.00 32 1005.6
20260906091516 23 123 3.2 8.0 0.00 0.00 0.00 32 1005.6
20260906091026 23 135 1.6 8.0 0.00 0.00 0.00 32 1005.6
20260906090540 23 130 1.6 8.0 0.00 0.00 0.00 32 1005.6
20260906090049 23 134 3.2 8.0 0.00 0.00 0.00 32 1005.6
20260906085506 23 129 1.6 8.0 0.00 0.00 0.00 32 1005.6
20260906085016 23 117 1.6 8.0 0.00 0.00 0.00 32 1005.5
20260906084535 23 132 1.6 4.8 0.00 0.00 0.00 32 1005.6
20260906084039 23 129 1.6 4.8 0.00 0.00 0.00 32 1005.6
20260906083554 23 129 1.6 4.8 0.00 0.00 0.00 32 1005.7
20260906083004 23 129 1.6 4.8 0.00 0.00 0.00 33 1005.7
20260906082517 23 131 0.0 3.2 0.00 0.00 0.00 33 1005.7
20260906082028 23 138 1.6 6.4 0.00 0.00 0.00 33 1005.7
20260906081549 23 138 1.6 6.4 0.00 0.00 0.00 33 1005.7
20260906081051 23 132 0.0 3.2 0.00 0.00 0.00 33 1005.8
20260906080508 23 143 0.0 3.2 0.00 0.00 0.00 34 1005.9
20260906080019 23 143 0.0 3.2 0.00 0.00 0.00 34 1006.0
20260906075533 23 143 0.0 3.2 0.00 0.00 0.00 34 1006.1
20260906075043 23 143 0.0 3.2 0.00 0.00 0.00 34 1006.1
20260906074558 23 143 0.0 1.6 0.00 0.00 0.00 34 1006.1
20260906074009 23 143 0.0 3.2 0.00 0.00 0.00 34 1006.2
20260906073526 23 143 0.0 3.2 0.00 0.00 0.00 34 1006.2
20260906073036 23 143 0.0 3.2 0.00 0.00 0.00 34 1006.2
20260906072550 23 143 0.0 3.2 0.00 0.00 0.00 34 1006.2
20260906072100 23 146 0.0 4.8 0.00 0.00 0.00 34 1006.3
20260906072007 23 135 0.0 4.8 0.00 0.00 0.00 34 1006.2
20260906071515 23 135 1.6 4.8 0.00 0.00 0.00 34 1006.2
20260906071034 23 136 0.0 3.2 0.00 0.00 0.00 34 1006.3
20260906070543 23 136 0.0 3.2 0.00 0.00 0.00 34 1006.4
20260906070058 22 136 0.0 1.6 0.00 0.00 0.00 34 1006.4
20260906065509 23 136 0.0 1.6 0.00 0.00 0.00 34 1006.4
20260906065024 23 136 0.0 3.2 0.00 0.00 0.00 33 1006.3
20260906064535 23 136 0.0 4.8 0.00 0.00 0.00 33 1006.3
20260906064049 23 127 0.0 4.8 0.00 0.00 0.00 33 1006.2
20260906063503 23 96 0.0 6.4 0.00 0.00 0.00 33 1006.1
20260906063018 23 96 1.6 6.4 0.00 0.00 0.00 33 1006.2
20260906062529 23 136 0.0 0.0 0.00 0.00 0.00 34 1006.1
20260906062041 23 146 0.0 4.8 0.00 0.00 0.00 33 1006.0
20260906061552 24 160 0.0 8.0 0.00 0.00 0.00 32 1006.0
20260906061007 24 148 0.0 8.0 0.00 0.00 0.00 31 1005.9
20260906060518 24 152 1.6 9.7 0.00 0.00 0.00 31 1005.9
20260906060029 24 134 4.8 9.7 0.00 0.00 0.00 31 1005.9
20260906055532 24 139 3.2 11.3 0.00 0.00 0.00 31 1005.9
20260906055045 25 131 4.8 12.9 0.00 0.00 0.00 31 1005.8
20260906054556 25 122 4.8 12.9 0.00 0.00 0.00 31 1005.7
20260906054011 25 130 4.8 14.5 0.00 0.00 0.00 31 1005.7
20260906053524 25 136 4.8 14.5 0.00 0.00 0.00 31 1005.7
20260906053037 25 127 4.8 12.9 0.00 0.00 0.00 31 1005.7
20260906052550 24 136 3.2 8.0 0.00 0.00 0.00 31 1005.8
20260906052004 24 138 1.6 9.7 0.00 0.00 0.00 31 1005.8
20260906051520 25 135 3.2 9.7 0.00 0.00 0.00 31 1005.7
20260906051030 25 136 3.2 9.7 0.00 0.00 0.00 31 1005.7
20260906050545 25 120 3.2 6.4 0.00 0.00 0.00 31 1005.6
20260906050114 25 125 1.6 8.0 0.00 0.00 0.00 31 1005.7
20260906045512 25 133 0.0 9.7 0.00 0.00 0.00 31 1005.6
20260906045021 25 136 3.2 9.7 0.00 0.00 0.00 31 1005.6
20260906044541 25 129 1.6 8.0 0.00 0.00 0.00 31 1005.7
20260906044049 25 129 3.2 9.7 0.00 0.00 0.00 31 1005.7
20260906043559 25 136 3.2 9.7 0.00 0.00 0.00 31 1005.6
20260906043501 25 141 3.2 8.0 0.00 0.00 0.00 31 1005.6
20260906043011 25 131 1.6 6.4 0.00 0.00 0.00 31 1005.6
20260906042526 25 129 0.0 4.8 0.00 0.00 0.00 30 1005.6
20260906042037 25 129 0.0 6.4 0.00 0.00 0.00 30 1005.6
20260906041551 25 127 1.6 6.4 0.00 0.00 0.00 30 1005.6
20260906041004 25 128 1.6 6.4 0.00 0.00 0.00 30 1005.6
20260906040521 25 132 0.0 4.8 0.00 0.00 0.00 30 1005.6
20260906040034 25 132 0.0 6.4 0.00 0.00 0.00 30 1005.6
20260906035546 25 134 1.6 6.4 0.00 0.00 0.00 30 1005.7
20260906035057 26 129 1.6 8.0 0.00 0.00 0.00 29 1005.7
20260906034511 26 128 3.2 6.4 0.00 0.00 0.00 29 1005.6
20260906034018 26 122 1.6 6.4 0.00 0.00 0.00 29 1005.6
20260906033533 26 129 1.6 6.4 0.00 0.00 0.00 29 1005.6
20260906033045 26 128 1.6 6.4 0.00 0.00 0.00 29 1005.5
20260906032557 26 128 1.6 6.4 0.00 0.00 0.00 29 1005.4
20260906032501 26 133 1.6 6.4 0.00 0.00 0.00 29 1005.4
20260906032016 26 140 1.6 8.0 0.00 0.00 0.00 28 1005.3
20260906031541 26 133 1.6 8.0 0.00 0.00 0.00 28 1005.2
20260906031041 26 131 3.2 6.4 0.00 0.00 0.00 28 1005.1
20260906030551 26 124 0.0 4.8 0.00 0.00 0.00 28 1005.0
20260906030010 27 130 1.6 8.0 0.00 0.00 0.00 28 1005.0
20260906025519 27 131 1.6 8.0 0.00 0.00 0.00 28 1005.0
20260906025035 27 151 1.6 9.7 0.00 0.00 0.00 28 1004.9
20260906024545 27 129 3.2 9.7 0.00 0.00 0.00 28 1004.8
20260906024059 27 124 1.6 9.7 0.00 0.00 0.00 27 1004.7
20260906024002 27 119 1.6 9.7 0.00 0.00 0.00 27 1004.7
20260906023511 27 120 3.2 9.7 0.00 0.00 0.00 27 1004.7
20260906023025 27 122 1.6 6.4 0.00 0.00 0.00 28 1004.7
20260906022535 27 146 1.6 6.4 0.00 0.00 0.00 28 1004.7
20260906022053 27 131 1.6 6.4 0.00 0.00 0.00 28 1004.6
20260906021606 27 124 0.0 4.8 0.00 0.00 0.00 28 1004.5
20260906021500 27 132 0.0 8.0 0.00 0.00 0.00 28 1004.6
20260906021015 28 128 0.0 8.0 0.00 0.00 0.00 28 1004.5
20260906020525 28 135 0.0 3.2 0.00 0.00 0.00 28 1004.5
20260906020050 28 135 0.0 8.0 0.00 0.00 0.00 28 1004.4
20260906015549 28 123 1.6 8.0 0.00 0.00 0.00 28 1004.4
20260906015006 28 131 0.0 4.8 0.00 0.00 0.00 28 1004.3
20260906014517 28 130 0.0 1.6 0.00 0.00 0.00 30 1004.2
20260906014031 28 129 0.0 1.6 0.00 0.00 0.00 30 1004.2
20260906013543 29 130 0.0 1.6 0.00 0.00 0.00 29 1004.2
20260906013057 29 129 0.0 1.6 0.00 0.00 0.00 29 1004.1
20260906012513 29 129 0.0 3.2 0.00 0.00 0.00 29 1004.2
20260906012023 29 129 0.0 1.6 0.00 0.00 0.00 29 1004.2
20260906011537 30 129 0.0 3.2 0.00 0.00 0.00 28 1004.2
20260906011051 30 129 0.0 3.2 0.00 0.00 0.00 28 1004.2
20260906010503 30 129 0.0 3.2 0.00 0.00 0.00 27 1004.1
20260906010015 30 129 0.0 4.8 0.00 0.00 0.00 27 1004.2
20260906005530 30 125 0.0 8.0 0.00 0.00 0.00 27 1004.1
20260906005041 31 129 1.6 9.7 0.00 0.00 0.00 27 1004.2
20260906004558 31 128 3.2 9.7 0.00 0.00 0.00 26 1004.2
20260906004009 31 131 3.2 9.7 0.00 0.00 0.00 26 1004.3
20260906003524 31 134 0.0 6.4 0.00 0.00 0.00 26 1004.2
20260906003033 32 133 1.6 11.3 0.00 0.00 0.00 25 1004.3
20260906002547 31 119 3.2 11.3 0.00 0.00 0.00 25 1004.2
20260906002057 32 134 3.2 11.3 0.00 0.00 0.00 25 1004.3
20260906001513 32 130 4.8 11.3 0.00 0.00 0.00 24 1004.3
20260906001023 32 124 1.6 12.9 0.00 0.00 0.00 24 1004.2
20260906000536 32 129 1.6 12.9 0.00 0.00 0.00 24 1004.1
20260906000047 32 127 1.6 9.7 0.00 0.00 0.00 24 1004.1
20260905235503 32 127 1.6 11.3 0.00 0.00 0.00 24 1004.1